Location: Newark
(47.4167°N, 6.3667°E)
Time: 09:11:55
(UTC+00:00)

ISS - Visible Passes

Search period start: 19 September 2019 00:00
Search period end: 29 September 2019 00:00
Orbit: 411 x 421 km, 51.6° (Epoch: 19 September)

Date Brightness Start Highest point End Pass type
(mag) Time Alt. Az. Time Alt. Az. Time Alt. Az.
19 Sep -2.0 18:36:57 10° S 18:38:58 15° SE 18:39:18 15° SE visible
19 Sep -0.9 20:11:56 10° WSW 20:12:15 12° WSW 20:12:15 12° WSW visible
20 Sep -3.4 19:23:36 10° SW 19:26:22 47° S 19:26:22 47° S visible
21 Sep -3.0 18:35:26 10° SSW 18:38:28 34° SE 18:40:17 19° E visible
21 Sep -1.4 20:11:50 10° W 20:13:12 22° W 20:13:12 22° W visible
22 Sep -3.8 19:23:16 10° WSW 19:26:36 76° NNW 19:26:56 66° NNE visible
23 Sep -3.9 18:34:48 10° WSW 18:38:07 76° SSE 18:40:32 17° ENE visible
23 Sep -1.4 20:11:52 10° W 20:13:27 23° WNW 20:13:27 23° WNW visible
24 Sep -3.0 19:23:13 10° W 19:26:27 47° NNW 19:26:55 43° NNE visible
25 Sep -3.3 18:34:35 10° W 18:37:52 59° NNW 18:40:20 16° ENE visible
25 Sep -1.2 20:11:50 10° WNW 20:13:14 21° NW 20:13:14 21° NW visible
26 Sep -2.7 19:23:11 10° WNW 19:26:20 38° N 19:26:34 37° N visible
27 Sep -2.8 18:34:31 10° W 18:37:42 41° N 18:39:52 18° ENE visible
27 Sep -1.0 20:11:37 10° WNW 20:12:46 19° NW 20:12:46 19° NW visible
28 Sep -2.7 19:23:02 10° WNW 19:26:02 39° N 19:26:02 39° N visible
